Voltar ao catálogo

FENGYUN 1C DEB

AtivoSSO
NORAD 32101·DEBRIS·🇨🇳 China

Lançado May 10, 1999 de Taiyuan Satellite Launch Center

Loading…

Próximas Passagens (próximas 24 horas)

TLE

AtualizadoSource: Space-Track

Época: Sep 14, 2026, 13:11 UTC

1 32101U 99025CQT 26257.54990961  .00001159  00000-0  73018-3 0  9995
2 32101  99.0210 159.1919 0116084 192.6569 167.1676 14.02993360970482

Acompanhe FENGYUN 1C DEB em tempo real com AllMySat

Download on the App Store